When you browse on this site, cookies collect data to enhance your experience and personalize the content and advertising you see.
Visit our Privacy Policy to learn more. By continuing to use the site, you agree to this use of cookies and data.
  • Em Portugal
  • Lista de países
  • Para 7 dias
  • Temperatura da água
  • Mapa do tempo
  • Widgets de tempo
  • user-avatar
    Iniciar Sessão

    Previsão horária em Rutul

    Hoje, 25 Maio, Segunda-feira

    Tempo Temperatura Precipitação Vento Pressão Humidade
    00:00 +12°C° 0.1 mm 1 m/s 650 mmHg 91%
    01:00 +12°C° 0.1 mm 1 m/s 650 mmHg 91%
    02:00 +12°C° 0.1 mm 1 m/s 650 mmHg 91%
    03:00 +11°C° 0 mm 0 m/s 650 mmHg 92%
    04:00 +12°C° 0 mm 1 m/s 650 mmHg 90%
    05:00 +13°C° 0 mm 1 m/s 651 mmHg 89%
    06:00 +14°C° 0 mm 1 m/s 651 mmHg 87%
    07:00 +15°C° 0 mm 2 m/s 651 mmHg 83%
    08:00 +17°C° 0 mm 2 m/s 651 mmHg 78%
    09:00 +19°C° 0 mm 3 m/s 652 mmHg 72%
    10:00 +20°C° 0.1 mm 3 m/s 652 mmHg 69%
    11:00 +20°C° 0.1 mm 4 m/s 652 mmHg 66%
    12:00 +21°C° 0.1 mm 4 m/s 651 mmHg 63%
    13:00 +21°C° 0.1 mm 4 m/s 651 mmHg 65%
    14:00 +20°C° 0.1 mm 3 m/s 650 mmHg 67%
    15:00 +20°C° 0.1 mm 3 m/s 649 mmHg 70%
    16:00 +19°C° 0.3 mm 3 m/s 648 mmHg 73%
    17:00 +18°C° 0.3 mm 2 m/s 648 mmHg 77%
    18:00 +17°C° 0.3 mm 2 m/s 647 mmHg 80%
    19:00 +16°C° 0.2 mm 2 m/s 646 mmHg 82%
    20:00 +15°C° 0.2 mm 2 m/s 646 mmHg 84%
    21:00 +14°C° 0.2 mm 2 m/s 645 mmHg 85%
    22:00 +13°C° 0 mm 2 m/s 645 mmHg 86%
    23:00 +12°C° 0 mm 3 m/s 645 mmHg 86%

    Amanhã, 26 Maio, Terça-feira

    Tempo Temperatura Precipitação Vento Pressão Humidade
    00:00 +12°C° 0 mm 3 m/s 645 mmHg 87%
    01:00 +11°C° 0 mm 3 m/s 645 mmHg 85%
    02:00 +11°C° 0 mm 3 m/s 645 mmHg 83%
    03:00 +11°C° 0 mm 3 m/s 645 mmHg 81%
    04:00 +11°C° 0 mm 3 m/s 645 mmHg 77%
    05:00 +12°C° 0 mm 3 m/s 646 mmHg 72%
    06:00 +13°C° 0 mm 3 m/s 647 mmHg 67%
    07:00 +16°C° 0 mm 3 m/s 647 mmHg 59%
    08:00 +18°C° 0 mm 3 m/s 648 mmHg 51%
    09:00 +20°C° 0 mm 3 m/s 649 mmHg 42%
    10:00 +20°C° 0 mm 3 m/s 649 mmHg 43%
    11:00 +21°C° 0 mm 3 m/s 650 mmHg 43%
    12:00 +22°C° 0 mm 3 m/s 650 mmHg 44%
    13:00 +22°C° 0 mm 3 m/s 650 mmHg 46%
    14:00 +22°C° 0 mm 3 m/s 650 mmHg 48%
    15:00 +22°C° 0 mm 3 m/s 650 mmHg 50%
    16:00 +20°C° 0 mm 2 m/s 650 mmHg 57%
    17:00 +19°C° 0 mm 2 m/s 650 mmHg 64%
    18:00 +18°C° 0 mm 2 m/s 650 mmHg 71%
    19:00 +16°C° 0 mm 2 m/s 650 mmHg 71%
    20:00 +15°C° 0 mm 2 m/s 650 mmHg 72%
    21:00 +13°C° 0 mm 1 m/s 649 mmHg 73%
    22:00 +12°C° 0 mm 1 m/s 650 mmHg 67%
    23:00 +12°C° 0 mm 1 m/s 650 mmHg 62%

    Depois de amanhã, 27 Maio, Quarta-feira

    Tempo Temperatura Precipitação Vento Pressão Humidade
    00:00 +12°C° 0 mm 1 m/s 650 mmHg 56%
    01:00 +12°C° 0 mm 1 m/s 649 mmHg 55%
    02:00 +12°C° 0 mm 1 m/s 649 mmHg 53%
    03:00 +12°C° 0 mm 2 m/s 649 mmHg 52%
    04:00 +13°C° 0 mm 1 m/s 650 mmHg 52%
    05:00 +15°C° 0 mm 1 m/s 651 mmHg 52%
    06:00 +16°C° 0 mm 1 m/s 651 mmHg 52%
    07:00 +19°C° 0 mm 1 m/s 652 mmHg 52%
    08:00 +19°C° 0 mm 2 m/s 652 mmHg 51%
    09:00 +21°C° 0 mm 2 m/s 653 mmHg 50%
    10:00 +23°C° 0 mm 2 m/s 653 mmHg 51%
    11:00 +23°C° 0 mm 2 m/s 653 mmHg 52%
    12:00 +24°C° 0 mm 2 m/s 652 mmHg 53%
    13:00 +24°C° 0 mm 2 m/s 652 mmHg 53%
    14:00 +24°C° 0 mm 2 m/s 652 mmHg 53%
    15:00 +24°C° 0 mm 2 m/s 652 mmHg 54%
    16:00 +24°C° 0 mm 2 m/s 651 mmHg 59%
    17:00 +23°C° 0 mm 1 m/s 651 mmHg 64%
    18:00 +22°C° 0 mm 1 m/s 651 mmHg 69%
    19:00 +20°C° 0 mm 1 m/s 650 mmHg 68%
    20:00 +18°C° 0 mm 1 m/s 650 mmHg 66%
    21:00 +16°C° 0 mm 2 m/s 649 mmHg 64%
    22:00 +15°C° 0 mm 2 m/s 649 mmHg 60%
    23:00 +15°C° 0 mm 2 m/s 649 mmHg 56%

    28 Maio, Quinta-feira

    Tempo Temperatura Precipitação Vento Pressão Humidade
    00:00 +15°C° 0 mm 2 m/s 648 mmHg 52%
    01:00 +15°C° 0 mm 2 m/s 648 mmHg 50%
    02:00 +15°C° 0 mm 2 m/s 648 mmHg 49%
    03:00 +15°C° 0 mm 2 m/s 647 mmHg 48%
    04:00 +16°C° 0 mm 2 m/s 648 mmHg 48%
    05:00 +18°C° 0 mm 2 m/s 648 mmHg 49%
    06:00 +20°C° 0 mm 1 m/s 649 mmHg 49%
    07:00 +21°C° 0 mm 2 m/s 649 mmHg 44%
    08:00 +24°C° 0 mm 2 m/s 650 mmHg 39%
    09:00 +26°C° 0 mm 2 m/s 650 mmHg 35%
    10:00 +27°C° 0 mm 2 m/s 650 mmHg 35%
    11:00 +27°C° 0 mm 2 m/s 650 mmHg 35%
    12:00 +28°C° 0 mm 2 m/s 650 mmHg 35%
    13:00 +28°C° 0 mm 2 m/s 649 mmHg 35%
    14:00 +27°C° 0 mm 2 m/s 649 mmHg 36%
    15:00 +27°C° 0 mm 2 m/s 648 mmHg 37%
    16:00 +26°C° 0 mm 2 m/s 648 mmHg 44%
    17:00 +25°C° 0 mm 1 m/s 648 mmHg 52%
    18:00 +24°C° 0 mm 1 m/s 647 mmHg 59%
    19:00 +22°C° 0 mm 1 m/s 647 mmHg 59%
    20:00 +20°C° 0 mm 1 m/s 646 mmHg 59%
    21:00 +18°C° 0 mm 1 m/s 646 mmHg 60%
    22:00 +17°C° 0 mm 2 m/s 645 mmHg 54%
    23:00 +17°C° 0 mm 2 m/s 645 mmHg 48%

    29 Maio, Sexta-feira

    Tempo Temperatura Precipitação Vento Pressão Humidade
    00:00 +17°C° 0 mm 2 m/s 645 mmHg 41%
    01:00 +17°C° 0 mm 2 m/s 645 mmHg 41%
    02:00 +17°C° 0 mm 2 m/s 644 mmHg 40%
    03:00 +17°C° 0 mm 2 m/s 644 mmHg 40%
    04:00 +18°C° 0 mm 2 m/s 645 mmHg 43%
    05:00 +20°C° 0 mm 2 m/s 645 mmHg 46%
    06:00 +22°C° 0 mm 1 m/s 645 mmHg 50%
    07:00 +24°C° 0 mm 2 m/s 646 mmHg 44%
    08:00 +26°C° 0 mm 2 m/s 646 mmHg 38%
    09:00 +28°C° 0 mm 2 m/s 646 mmHg 33%
    10:00 +28°C° 0 mm 3 m/s 646 mmHg 32%
    11:00 +29°C° 0 mm 4 m/s 646 mmHg 32%
    12:00 +29°C° 0 mm 4 m/s 646 mmHg 32%
    13:00 +29°C° 0 mm 4 m/s 646 mmHg 33%
    14:00 +29°C° 0 mm 4 m/s 645 mmHg 35%
    15:00 +29°C° 0 mm 4 m/s 644 mmHg 36%
    16:00 +27°C° 0.2 mm 4 m/s 644 mmHg 44%
    17:00 +26°C° 0.2 mm 3 m/s 643 mmHg 51%
    18:00 +24°C° 0.2 mm 2 m/s 643 mmHg 59%
    19:00 +23°C° 0.2 mm 2 m/s 642 mmHg 60%
    20:00 +20°C° 0.2 mm 2 m/s 642 mmHg 62%
    21:00 +18°C° 0.2 mm 2 m/s 642 mmHg 64%
    22:00 +18°C° 0.2 mm 2 m/s 642 mmHg 65%
    23:00 +17°C° 0.2 mm 2 m/s 642 mmHg 66%

    30 Maio, Sábado

    Tempo Temperatura Precipitação Vento Pressão Humidade
    00:00 +17°C° 0.2 mm 2 m/s 642 mmHg 67%
    01:00 +17°C° 0.1 mm 2 m/s 642 mmHg 67%
    02:00 +16°C° 0.1 mm 2 m/s 642 mmHg 68%
    03:00 +16°C° 0.1 mm 2 m/s 642 mmHg 68%
    04:00 +18°C° 0 mm 1 m/s 643 mmHg 67%
    05:00 +20°C° 0 mm 1 m/s 644 mmHg 65%
    06:00 +21°C° 0 mm 1 m/s 644 mmHg 64%
    07:00 +22°C° 0.1 mm 1 m/s 645 mmHg 60%
    08:00 +23°C° 0.1 mm 2 m/s 646 mmHg 56%
    09:00 +24°C° 0.1 mm 3 m/s 646 mmHg 52%
    10:00 +24°C° 0.2 mm 3 m/s 646 mmHg 53%
    11:00 +24°C° 0.2 mm 3 m/s 647 mmHg 53%
    12:00 +23°C° 0.2 mm 4 m/s 647 mmHg 54%
    13:00 +24°C° 0.2 mm 3 m/s 647 mmHg 55%
    14:00 +22°C° 0.2 mm 3 m/s 647 mmHg 56%
    15:00 +22°C° 0.2 mm 3 m/s 647 mmHg 57%
    16:00 +21°C° 0.1 mm 3 m/s 647 mmHg 61%
    17:00 +20°C° 0.1 mm 2 m/s 647 mmHg 66%
    18:00 +19°C° 0.1 mm 2 m/s 647 mmHg 71%
    19:00 +17°C° 0 mm 2 m/s 647 mmHg 74%
    20:00 +16°C° 0 mm 1 m/s 647 mmHg 78%
    21:00 +15°C° 0 mm 1 m/s 647 mmHg 82%
    22:00 +14°C° 0 mm 1 m/s 647 mmHg 81%
    23:00 +13°C° 0 mm 0 m/s 647 mmHg 81%
    Mostrar mais